Time,TemperatureF,DewpointF,PressureIn,WindDirection,WindDirectionDegrees,WindSpeedMPH,WindSpeedGustMPH,Humidity,HourlyPrecipIn,Conditions,Clouds,dailyrainin,SoftwareType,DateUTC
2013-01-30 00:04:00,46.0,44.0,-100.00,NW,305,17.0,25.0,90,-99.99,,,-99.99,,2013-01-30 05:04:00,
2013-01-30 00:12:00,46.0,43.0,-100.00,WNW,300,14.0,21.0,90,-99.99,,,-99.99,,2013-01-30 05:12:00,
2013-01-30 00:22:00,46.0,43.0,-100.00,WNW,300,14.0,21.0,90,-99.99,,,-99.99,,2013-01-30 05:22:00,
2013-01-30 00:32:00,46.0,44.0,-100.00,NW,305,16.0,20.0,91,-99.99,,,-99.99,,2013-01-30 05:32:00,
2013-01-30 00:43:00,46.0,44.0,-100.00,NW,305,16.0,23.0,91,-99.99,,,-99.99,,2013-01-30 05:43:00,
2013-01-30 00:52:00,46.0,44.0,-100.00,NW,305,16.0,23.0,91,-99.99,,,-99.99,,2013-01-30 05:52:00,
2013-01-30 01:42:00,46.0,43.0,-100.00,WNW,290,14.0,19.0,91,-99.99,,,-99.99,,2013-01-30 06:42:00,
2013-01-30 01:52:00,46.0,43.0,-100.00,WNW,290,14.0,19.0,91,-99.99,,,-99.99,,2013-01-30 06:52:00,
2013-01-30 02:02:00,46.0,43.0,-100.00,WNW,295,15.0,19.0,91,-99.99,,,-99.99,,2013-01-30 07:02:00,
2013-01-30 02:12:00,46.0,44.0,-100.00,WNW,295,9.0,20.0,91,-99.99,,,-99.99,,2013-01-30 07:12:00,
2013-01-30 02:22:00,46.0,44.0,-100.00,WNW,295,9.0,20.0,91,-99.99,,,-99.99,,2013-01-30 07:22:00,
2013-01-30 02:32:00,47.0,44.0,-100.00,West,275,11.0,23.0,91,-99.99,,,-99.99,,2013-01-30 07:32:00,
2013-01-30 02:42:00,47.0,45.0,-100.00,West,270,17.0,24.0,91,-99.99,,,-99.99,,2013-01-30 07:42:00,
2013-01-30 02:52:00,47.0,45.0,-100.00,West,270,17.0,24.0,91,-99.99,,,-99.99,,2013-01-30 07:52:00,
2013-01-30 03:02:00,47.0,45.0,-100.00,West,270,18.0,26.0,91,-99.99,,,-99.99,,2013-01-30 08:02:00,
2013-01-30 03:11:00,47.0,44.0,-100.00,West,270,15.0,22.0,91,-99.99,,,-99.99,,2013-01-30 08:11:00,
2013-01-30 03:22:00,47.0,44.0,-100.00,West,270,15.0,22.0,91,-99.99,,,-99.99,,2013-01-30 08:22:00,
2013-01-30 03:32:00,46.0,44.0,-100.00,West,280,16.0,24.0,91,-99.99,,,-99.99,,2013-01-30 08:32:00,
2013-01-30 03:42:00,46.0,44.0,-100.00,WNW,285,15.0,24.0,91,-99.99,,,-99.99,,2013-01-30 08:42:00,
2013-01-30 03:52:00,46.0,44.0,-100.00,WNW,285,15.0,24.0,91,-99.99,,,-99.99,,2013-01-30 08:52:00,
2013-01-30 04:02:00,46.0,44.0,-100.00,WNW,290,16.0,25.0,91,-99.99,,,-99.99,,2013-01-30 09:02:00,
2013-01-30 04:12:00,46.0,44.0,-100.00,WNW,295,16.0,23.0,91,-99.99,,,-99.99,,2013-01-30 09:12:00,
2013-01-30 04:22:00,46.0,44.0,-100.00,WNW,295,16.0,23.0,91,-99.99,,,-99.99,,2013-01-30 09:22:00,
2013-01-30 04:32:00,46.0,44.0,-100.00,WNW,285,15.0,19.0,91,-99.99,,,-99.99,,2013-01-30 09:32:00,
2013-01-30 04:42:00,46.0,44.0,-100.00,WNW,285,14.0,20.0,91,-99.99,,,-99.99,,2013-01-30 09:42:00,
2013-01-30 04:51:00,46.0,44.0,-100.00,WNW,285,14.0,20.0,91,-99.99,,,-99.99,,2013-01-30 09:51:00,
2013-01-30 05:02:00,46.0,43.0,-100.00,WNW,290,16.0,21.0,91,-99.99,,,-99.99,,2013-01-30 10:02:00,
2013-01-30 05:12:00,46.0,43.0,-100.00,WNW,290,16.0,20.0,91,-99.99,,,-99.99,,2013-01-30 10:12:00,
2013-01-30 05:22:00,46.0,43.0,-100.00,WNW,290,16.0,20.0,91,-99.99,,,-99.99,,2013-01-30 10:22:00,
2013-01-30 05:42:00,46.0,44.0,-100.00,West,280,17.0,21.0,91,-99.99,,,-99.99,,2013-01-30 10:42:00,
2013-01-30 05:52:00,46.0,44.0,-100.00,West,280,17.0,21.0,91,-99.99,,,-99.99,,2013-01-30 10:52:00,
2013-01-30 06:02:00,46.0,44.0,-100.00,WNW,285,16.0,22.0,91,-99.99,,,-99.99,,2013-01-30 11:02:00,
2013-01-30 06:11:00,46.0,44.0,-100.00,WNW,285,16.0,22.0,91,-99.99,,,-99.99,,2013-01-30 11:11:00,
2013-01-30 06:33:00,46.0,44.0,-100.00,WNW,285,10.0,19.0,90,-99.99,,,-99.99,,2013-01-30 11:33:00,
2013-01-30 06:42:00,46.0,44.0,-100.00,West,275,13.0,19.0,90,-99.99,,,-99.99,,2013-01-30 11:42:00,
2013-01-30 06:52:00,46.0,44.0,-100.00,West,275,13.0,19.0,90,-99.99,,,-99.99,,2013-01-30 11:52:00,
2013-01-30 07:02:00,47.0,44.0,-100.00,West,280,16.0,21.0,90,-99.99,,,-99.99,,2013-01-30 12:02:00,
2013-01-30 07:12:00,47.0,44.0,-100.00,West,280,16.0,21.0,90,-99.99,,,-99.99,,2013-01-30 12:12:00,
2013-01-30 07:33:00,47.0,44.0,-100.00,WNW,285,17.0,21.0,89,-99.99,,,-99.99,,2013-01-30 12:33:00,
2013-01-30 07:43:00,47.0,44.0,-100.00,WNW,290,13.0,22.0,89,-99.99,,,-99.99,,2013-01-30 12:43:00,
2013-01-30 08:03:00,47.0,44.0,-100.00,WNW,290,15.0,21.0,89,-99.99,,,-99.99,,2013-01-30 13:03:00,
2013-01-30 08:12:00,46.0,43.0,-100.00,WNW,285,13.0,18.0,89,-99.99,,,-99.99,,2013-01-30 13:12:00,
2013-01-30 08:23:00,46.0,43.0,-100.00,WNW,285,13.0,18.0,89,-99.99,,,-99.99,,2013-01-30 13:23:00,
2013-01-30 08:33:00,47.0,44.0,-100.00,NW,320,10.0,18.0,89,-99.99,,,-99.99,,2013-01-30 13:33:00,
2013-01-30 08:43:00,48.0,45.0,-100.00,NW,310,12.0,20.0,89,-99.99,,,-99.99,,2013-01-30 13:43:00,
2013-01-30 08:52:00,48.0,45.0,-100.00,NW,310,12.0,20.0,89,-99.99,,,-99.99,,2013-01-30 13:52:00,
2013-01-30 09:03:00,48.0,45.0,-100.00,WNW,295,19.0,25.0,89,-99.99,,,-99.99,,2013-01-30 14:03:00,
2013-01-30 09:12:00,48.0,45.0,-100.00,WNW,295,16.0,24.0,89,-99.99,,,-99.99,,2013-01-30 14:12:00,
2013-01-30 09:23:00,48.0,45.0,-100.00,WNW,295,16.0,24.0,89,-99.99,,,-99.99,,2013-01-30 14:23:00,
2013-01-30 09:43:00,48.0,45.0,-100.00,NW,305,20.0,32.0,89,-99.99,,,-99.99,,2013-01-30 14:43:00,
2013-01-30 09:53:00,48.0,45.0,-100.00,NW,305,20.0,32.0,89,-99.99,,,-99.99,,2013-01-30 14:53:00,
2013-01-30 10:03:00,49.0,46.0,-100.00,NW,305,22.0,32.0,90,-99.99,,,-99.99,,2013-01-30 15:03:00,
2013-01-30 10:12:00,49.0,46.0,-100.00,WNW,300,23.0,32.0,90,-99.99,,,-99.99,,2013-01-30 15:12:00,
2013-01-30 10:23:00,49.0,46.0,-100.00,WNW,300,23.0,32.0,90,-99.99,,,-99.99,,2013-01-30 15:23:00,
2013-01-30 10:33:00,49.0,46.0,-100.00,SW,220,24.0,34.0,90,-99.99,,,-99.99,,2013-01-30 15:33:00,
2013-01-30 10:43:00,49.0,47.0,-100.00,West,275,25.0,34.0,91,-99.99,,,-99.99,,2013-01-30 15:43:00,
2013-01-30 10:53:00,49.0,47.0,-100.00,West,275,25.0,34.0,91,-99.99,,,-99.99,,2013-01-30 15:53:00,
2013-01-30 11:03:00,50.0,47.0,-100.00,NW,310,26.0,38.0,91,-99.99,,,-99.99,,2013-01-30 16:03:00,
2013-01-30 11:13:00,49.0,47.0,-100.00,NW,315,25.0,38.0,91,-99.99,,,-99.99,,2013-01-30 16:13:00,
2013-01-30 11:23:00,49.0,47.0,-100.00,NW,315,25.0,38.0,91,-99.99,,,-99.99,,2013-01-30 16:23:00,
2013-01-30 11:32:00,50.0,47.0,-100.00,NW,315,27.0,37.0,91,-99.99,,,-99.99,,2013-01-30 16:32:00,
2013-01-30 11:42:00,51.0,49.0,-100.00,NW,315,31.0,42.0,92,-99.99,,,-99.99,,2013-01-30 16:42:00,
2013-01-30 11:52:00,50.0,48.0,-100.00,NW,310,32.0,42.0,92,-99.99,,,-99.99,,2013-01-30 16:52:00,
2013-01-30 12:03:00,50.0,48.0,-100.00,NW,310,32.0,42.0,92,-99.99,,,-99.99,,2013-01-30 17:03:00,
2013-01-30 12:13:00,49.0,47.0,-100.00,NW,305,28.0,39.0,92,-99.99,,,-99.99,,2013-01-30 17:13:00,
2013-01-30 12:23:00,49.0,47.0,-100.00,NW,305,28.0,39.0,92,-99.99,,,-99.99,,2013-01-30 17:23:00,
2013-01-30 12:33:00,50.0,48.0,-100.00,NW,310,31.0,43.0,92,-99.99,,,-99.99,,2013-01-30 17:33:00,
2013-01-30 12:43:00,50.0,48.0,-100.00,NW,305,31.0,45.0,92,-99.99,,,-99.99,,2013-01-30 17:43:00,
2013-01-30 12:53:00,50.0,48.0,-100.00,NW,305,31.0,45.0,92,-99.99,,,-99.99,,2013-01-30 17:53:00,
2013-01-30 13:03:00,50.0,48.0,-100.00,WNW,295,28.0,38.0,92,-99.99,,,-99.99,,2013-01-30 18:03:00,
2013-01-30 13:13:00,50.0,47.0,-100.00,NW,305,27.0,38.0,92,-99.99,,,-99.99,,2013-01-30 18:13:00,
2013-01-30 13:23:00,50.0,47.0,-100.00,NW,305,27.0,38.0,92,-99.99,,,-99.99,,2013-01-30 18:23:00,
2013-01-30 13:33:00,49.0,47.0,-100.00,NW,305,26.0,36.0,92,-99.99,,,-99.99,,2013-01-30 18:33:00,
2013-01-30 13:43:00,49.0,47.0,-100.00,NW,305,28.0,43.0,92,-99.99,,,-99.99,,2013-01-30 18:43:00,
2013-01-30 13:52:00,49.0,47.0,-100.00,NW,305,28.0,43.0,92,-99.99,,,-99.99,,2013-01-30 18:52:00,
2013-01-30 14:03:00,49.0,47.0,-100.00,NW,305,27.0,36.0,92,-99.99,,,-99.99,,2013-01-30 19:03:00,
2013-01-30 14:13:00,50.0,47.0,-100.00,NW,310,25.0,44.0,92,-99.99,,,-99.99,,2013-01-30 19:13:00,
2013-01-30 14:22:00,50.0,47.0,-100.00,NW,310,25.0,44.0,92,-99.99,,,-99.99,,2013-01-30 19:22:00,
2013-01-30 14:33:00,50.0,47.0,-100.00,NW,305,29.0,39.0,92,-99.99,,,-99.99,,2013-01-30 19:33:00,
2013-01-30 14:43:00,50.0,48.0,-100.00,NW,305,29.0,35.0,92,-99.99,,,-99.99,,2013-01-30 19:43:00,
2013-01-30 14:53:00,50.0,48.0,-100.00,NW,305,29.0,35.0,92,-99.99,,,-99.99,,2013-01-30 19:53:00,
2013-01-30 15:03:00,51.0,48.0,-100.00,WNW,300,31.0,39.0,92,-99.99,,,-99.99,,2013-01-30 20:03:00,
2013-01-30 15:12:00,51.0,48.0,-100.00,NW,315,28.0,38.0,91,-99.99,,,-99.99,,2013-01-30 20:12:00,
2013-01-30 15:22:00,51.0,48.0,-100.00,NW,315,28.0,38.0,91,-99.99,,,-99.99,,2013-01-30 20:22:00,
2013-01-30 15:33:00,51.0,49.0,-100.00,NW,310,32.0,47.0,91,-99.99,,,-99.99,,2013-01-30 20:33:00,
2013-01-30 15:42:00,51.0,49.0,-100.00,NW,310,32.0,47.0,91,-99.99,,,-99.99,,2013-01-30 20:42:00,
2013-01-30 15:52:00,52.0,49.0,-100.00,NW,315,31.0,43.0,90,-99.99,,,-99.99,,2013-01-30 20:52:00,
2013-01-30 16:04:00,52.0,48.0,-100.00,NW,315,30.0,44.0,86,-99.99,,,-99.99,,2013-01-30 21:04:00,
2013-01-30 16:12:00,53.0,48.0,-100.00,WNW,300,31.0,43.0,85,-99.99,,,-99.99,,2013-01-30 21:12:00,
2013-01-30 16:23:00,53.0,48.0,-100.00,WNW,300,31.0,43.0,85,-99.99,,,-99.99,,2013-01-30 21:23:00,
2013-01-30 16:32:00,54.0,48.0,-100.00,NW,310,31.0,46.0,82,-99.99,,,-99.99,,2013-01-30 21:32:00,
2013-01-30 16:43:00,54.0,48.0,-100.00,NW,305,31.0,43.0,81,-99.99,,,-99.99,,2013-01-30 21:43:00,
2013-01-30 16:52:00,54.0,48.0,-100.00,NW,305,31.0,43.0,81,-99.99,,,-99.99,,2013-01-30 21:52:00,
2013-01-30 17:03:00,54.0,49.0,-100.00,WNW,300,32.0,43.0,81,-99.99,,,-99.99,,2013-01-30 22:03:00,
2013-01-30 17:12:00,55.0,49.0,-100.00,WNW,300,35.0,46.0,81,-99.99,,,-99.99,,2013-01-30 22:12:00,
2013-01-30 17:22:00,55.0,49.0,-100.00,WNW,300,35.0,46.0,81,-99.99,,,-99.99,,2013-01-30 22:22:00,
2013-01-30 17:32:00,55.0,49.0,-100.00,WNW,290,31.0,45.0,82,-99.99,,,-99.99,,2013-01-30 22:32:00,
2013-01-30 17:42:00,53.0,49.0,-100.00,WSW,255,31.0,48.0,84,-99.99,,,-99.99,,2013-01-30 22:42:00,
2013-01-30 17:53:00,53.0,49.0,-100.00,WSW,255,31.0,48.0,84,-99.99,,,-99.99,,2013-01-30 22:53:00,
2013-01-30 18:03:00,52.0,48.0,-100.00,SW,230,33.0,44.0,86,-99.99,,,-99.99,,2013-01-30 23:03:00,
2013-01-30 18:12:00,52.0,49.0,-100.00,SW,220,38.0,47.0,88,-99.99,,,-99.99,,2013-01-30 23:12:00,
2013-01-30 18:22:00,52.0,49.0,-100.00,SW,220,38.0,47.0,88,-99.99,,,-99.99,,2013-01-30 23:22:00,
2013-01-30 18:33:00,52.0,48.0,-100.00,SW,215,32.0,44.0,87,-99.99,,,-99.99,,2013-01-30 23:33:00,
2013-01-30 18:42:00,52.0,48.0,-100.00,SSW,210,33.0,47.0,87,-99.99,,,-99.99,,2013-01-30 23:42:00,
2013-01-30 18:52:00,52.0,48.0,-100.00,SSW,210,33.0,47.0,87,-99.99,,,-99.99,,2013-01-30 23:52:00,
2013-01-30 19:02:00,51.0,48.0,-100.00,SSW,205,31.0,50.0,88,-99.99,,,-99.99,,2013-01-31 00:02:00,
2013-01-30 19:11:00,51.0,48.0,-100.00,SSW,205,31.0,50.0,88,-99.99,,,-99.99,,2013-01-31 00:11:00,
2013-01-30 19:32:00,51.0,48.0,-100.00,SSW,205,37.0,48.0,88,-99.99,,,-99.99,,2013-01-31 00:32:00,
2013-01-30 19:42:00,51.0,48.0,-100.00,SSW,200,34.0,53.0,88,-99.99,,,-99.99,,2013-01-31 00:42:00,
2013-01-30 19:53:00,51.0,48.0,-100.00,SSW,200,34.0,53.0,88,-99.99,,,-99.99,,2013-01-31 00:53:00,
2013-01-30 20:02:00,51.0,48.0,-100.00,SSW,200,34.0,48.0,88,-99.99,,,-99.99,,2013-01-31 01:02:00,
2013-01-30 20:12:00,51.0,48.0,-100.00,SSW,200,34.0,48.0,88,-99.99,,,-99.99,,2013-01-31 01:12:00,
2013-01-30 20:32:00,50.0,48.0,-100.00,SW,220,35.0,46.0,90,-99.99,,,-99.99,,2013-01-31 01:32:00,
2013-01-30 20:42:00,50.0,48.0,-100.00,SSW,195,30.0,44.0,91,-99.99,,,-99.99,,2013-01-31 01:42:00,
2013-01-30 20:53:00,50.0,48.0,-100.00,SSW,195,30.0,44.0,91,-99.99,,,-99.99,,2013-01-31 01:53:00,
2013-01-30 21:01:00,50.0,47.0,-100.00,South,190,29.0,46.0,91,-99.99,,,-99.99,,2013-01-31 02:01:00,
2013-01-30 21:12:00,50.0,48.0,-100.00,SW,215,32.0,44.0,91,-99.99,,,-99.99,,2013-01-31 02:12:00,
2013-01-30 21:22:00,50.0,48.0,-100.00,SW,215,32.0,44.0,91,-99.99,,,-99.99,,2013-01-31 02:22:00,
2013-01-30 21:32:00,50.0,47.0,-100.00,WNW,295,28.0,43.0,91,-99.99,,,-99.99,,2013-01-31 02:32:00,
2013-01-30 21:42:00,50.0,47.0,-100.00,WNW,295,28.0,43.0,91,-99.99,,,-99.99,,2013-01-31 02:42:00,
2013-01-30 22:03:00,52.0,49.0,-100.00,West,275,34.0,48.0,91,-99.99,,,-99.99,,2013-01-31 03:03:00,
2013-01-30 22:11:00,53.0,50.0,-100.00,WNW,290,40.0,54.0,92,-99.99,,,-99.99,,2013-01-31 03:11:00,
2013-01-30 22:22:00,53.0,50.0,-100.00,WNW,290,40.0,54.0,92,-99.99,,,-99.99,,2013-01-31 03:22:00,
2013-01-30 22:32:00,53.0,50.0,-100.00,WNW,285,41.0,55.0,92,-99.99,,,-99.99,,2013-01-31 03:32:00,
2013-01-30 22:42:00,52.0,50.0,-100.00,NW,310,36.0,51.0,92,-99.99,,,-99.99,,2013-01-31 03:42:00,
2013-01-30 22:52:00,52.0,50.0,-100.00,NW,310,36.0,51.0,92,-99.99,,,-99.99,,2013-01-31 03:52:00,
2013-01-30 23:02:00,51.0,49.0,-100.00,NW,310,34.0,50.0,92,-99.99,,,-99.99,,2013-01-31 04:02:00,
2013-01-30 23:11:00,51.0,49.0,-100.00,NW,310,30.0,49.0,92,-99.99,,,-99.99,,2013-01-31 04:11:00,
2013-01-30 23:22:00,51.0,49.0,-100.00,NW,310,30.0,49.0,92,-99.99,,,-99.99,,2013-01-31 04:22:00,
2013-01-30 23:30:00,52.0,50.0,-100.00,West,280,32.0,44.0,92,-99.99,,,-99.99,,2013-01-31 04:30:00,
2013-01-30 23:32:00,51.0,48.0,-100.00,NW,315,27.0,47.0,92,-99.99,,,-99.99,,2013-01-31 04:32:00,
2013-01-30 23:42:00,51.0,48.0,-100.00,NW,305,28.0,41.0,92,-99.99,,,-99.99,,2013-01-31 04:42:00,
2013-01-30 23:52:00,51.0,48.0,-100.00,NW,305,28.0,41.0,92,-99.99,,,-99.99,,2013-01-31 04:52:00,